CRYOSAT 2

Last updated on Wed Sep 17 2025 00:03:34 GMT+0000 (Coordinated Universal Time)

1 36508U 10013A 25259.60705172 .00000221 00000+0 54053-4 0 9993 2 36508 92.0185 211.0987 0002721 94.1151 266.0367 14.51907204818381
UTC large
Height (km)
Speed (km/s)
/
Latitude / Longitude
Inclination (degrees)
Orbital Period (minutes)
Azimuth
Elevation
Range (km)
Doppler Factor

Next 0 passes for location: London (51.5072 / 0.1276)

Sorry there are no passes over London.